Year,Month,Day,Hour,Minute,Value (Times are PST for temperature in C)
2016,04,04,00,00,11.70
2016,04,04,00,01,11.70
2016,04,04,00,02,11.70
2016,04,04,00,03,11.70
2016,04,04,00,04,11.70
2016,04,04,00,05,11.70
2016,04,04,00,06,11.70
2016,04,04,00,07,11.70
2016,04,04,00,08,11.70
2016,04,04,00,09,11.70
2016,04,04,00,10,11.70
2016,04,04,00,11,11.70
2016,04,04,00,12,11.70
2016,04,04,00,13,11.70
2016,04,04,00,14,11.70
2016,04,04,00,15,11.70
2016,04,04,00,16,11.70
2016,04,04,00,17,11.70
2016,04,04,00,18,11.70
2016,04,04,00,19,11.70
2016,04,04,00,20,11.70
2016,04,04,00,21,11.70
2016,04,04,00,22,11.70
2016,04,04,00,23,11.70
2016,04,04,00,24,11.70
2016,04,04,00,25,11.70
2016,04,04,00,26,11.70
2016,04,04,00,27,11.70
2016,04,04,00,28,11.60
2016,04,04,00,29,11.60
2016,04,04,00,30,11.60
2016,04,04,00,31,11.60
2016,04,04,00,32,11.60
2016,04,04,00,33,11.60
2016,04,04,00,34,11.60
2016,04,04,00,35,11.60
2016,04,04,00,36,11.60
2016,04,04,00,37,11.60
2016,04,04,00,38,11.60
2016,04,04,00,39,11.50
2016,04,04,00,40,11.50
2016,04,04,00,41,11.50
2016,04,04,00,42,11.50
2016,04,04,00,43,11.50
2016,04,04,00,44,11.50
2016,04,04,00,45,11.50
2016,04,04,00,46,11.50
2016,04,04,00,47,11.50
2016,04,04,00,48,11.50
2016,04,04,00,49,11.40
2016,04,04,00,50,11.50
2016,04,04,00,51,11.50
2016,04,04,00,52,11.40
2016,04,04,00,53,11.40
2016,04,04,00,54,11.40
2016,04,04,00,55,11.40
2016,04,04,00,56,11.40
2016,04,04,00,57,11.40
2016,04,04,00,58,11.40
2016,04,04,00,59,11.40
2016,04,04,01,00,11.40
2016,04,04,01,01,11.30
2016,04,04,01,02,11.30
2016,04,04,01,03,11.30
2016,04,04,01,04,11.30
2016,04,04,01,05,11.30
2016,04,04,01,06,11.30
2016,04,04,01,07,11.30
2016,04,04,01,08,11.30
2016,04,04,01,09,11.30
2016,04,04,01,10,11.30
2016,04,04,01,11,11.30
2016,04,04,01,12,11.30
2016,04,04,01,13,11.30
2016,04,04,01,14,11.30
2016,04,04,01,15,11.30
2016,04,04,01,16,11.30
2016,04,04,01,17,11.30
2016,04,04,01,18,11.30
2016,04,04,01,19,11.30
2016,04,04,01,20,11.30
2016,04,04,01,21,11.40
2016,04,04,01,22,11.30
2016,04,04,01,23,11.40
2016,04,04,01,24,11.40
2016,04,04,01,25,11.40
2016,04,04,01,26,11.30
2016,04,04,01,27,11.30
2016,04,04,01,28,11.30
2016,04,04,01,29,11.30
2016,04,04,01,30,11.30
2016,04,04,01,31,11.30
2016,04,04,01,32,11.30
2016,04,04,01,33,11.30
2016,04,04,01,34,11.30
2016,04,04,01,35,11.40
2016,04,04,01,36,11.40
2016,04,04,01,37,11.40
2016,04,04,01,38,11.40
2016,04,04,01,39,11.40
2016,04,04,01,40,11.30
2016,04,04,01,41,11.30
2016,04,04,01,42,11.30
2016,04,04,01,43,11.30
2016,04,04,01,44,11.30
2016,04,04,01,45,11.30
2016,04,04,01,46,11.30
2016,04,04,01,47,11.30
2016,04,04,01,48,11.30
2016,04,04,01,49,11.30
2016,04,04,01,50,11.30
2016,04,04,01,51,11.30
2016,04,04,01,52,11.30
2016,04,04,01,53,11.30
2016,04,04,01,54,11.30
2016,04,04,01,55,11.20
2016,04,04,01,56,11.20
2016,04,04,01,57,11.20
2016,04,04,01,58,11.20
2016,04,04,01,59,11.20
2016,04,04,02,00,11.20
2016,04,04,02,01,11.30
2016,04,04,02,02,11.20
2016,04,04,02,03,11.30
2016,04,04,02,04,11.30
2016,04,04,02,05,11.20
2016,04,04,02,06,11.20
2016,04,04,02,07,11.20
2016,04,04,02,08,11.20
2016,04,04,02,09,11.20
2016,04,04,02,10,11.20
2016,04,04,02,11,11.20
2016,04,04,02,12,11.20
2016,04,04,02,13,11.20
2016,04,04,02,14,11.20
2016,04,04,02,15,11.20
2016,04,04,02,16,11.20
2016,04,04,02,17,11.20
2016,04,04,02,18,11.20
2016,04,04,02,19,11.20
2016,04,04,02,20,11.20
2016,04,04,02,21,11.20
2016,04,04,02,22,11.20
2016,04,04,02,23,11.10
2016,04,04,02,24,11.10
2016,04,04,02,25,11.10
2016,04,04,02,26,11.10
2016,04,04,02,27,11.10
2016,04,04,02,28,11.10
2016,04,04,02,29,11.10
2016,04,04,02,30,11.10
2016,04,04,02,31,11.10
2016,04,04,02,32,11.10
2016,04,04,02,33,11.10
2016,04,04,02,34,11.10
2016,04,04,02,35,11.10
2016,04,04,02,36,11.10
2016,04,04,02,37,11.10
2016,04,04,02,38,11.10
2016,04,04,02,39,11.10
2016,04,04,02,40,11.10
2016,04,04,02,41,11.10
2016,04,04,02,42,11.10
2016,04,04,02,43,11.10
2016,04,04,02,44,11.10
2016,04,04,02,45,11.10
2016,04,04,02,46,11.10
2016,04,04,02,47,11.10
2016,04,04,02,48,11.10
2016,04,04,02,49,11.10
2016,04,04,02,50,11.10
2016,04,04,02,51,11.10
2016,04,04,02,52,11.10
2016,04,04,02,53,11.10
2016,04,04,02,54,11.10
2016,04,04,02,55,11.10
2016,04,04,02,56,11.10
2016,04,04,02,57,11.10
2016,04,04,02,58,11.10
2016,04,04,02,59,11.20
2016,04,04,03,00,11.20
2016,04,04,03,01,11.20
2016,04,04,03,02,11.20
2016,04,04,03,03,11.20
2016,04,04,03,04,11.10
2016,04,04,03,05,11.10
2016,04,04,03,06,11.10
2016,04,04,03,07,11.10
2016,04,04,03,08,11.10
2016,04,04,03,09,11.10
2016,04,04,03,10,11.10
2016,04,04,03,11,11.10
2016,04,04,03,12,11.10
2016,04,04,03,13,11.10
2016,04,04,03,14,11.10
2016,04,04,03,15,11.00
2016,04,04,03,16,11.00
2016,04,04,03,17,11.00
2016,04,04,03,18,11.00
2016,04,04,03,19,11.10
2016,04,04,03,20,11.10
2016,04,04,03,21,11.10
2016,04,04,03,22,11.10
2016,04,04,03,23,11.10
2016,04,04,03,24,11.10
2016,04,04,03,25,11.10
2016,04,04,03,26,11.10
2016,04,04,03,27,11.00
2016,04,04,03,28,11.00
2016,04,04,03,29,11.00
2016,04,04,03,30,11.00
2016,04,04,03,31,11.00
2016,04,04,03,32,11.00
2016,04,04,03,33,11.10
2016,04,04,03,34,11.10
2016,04,04,03,35,11.10
2016,04,04,03,36,11.10
2016,04,04,03,37,11.00
2016,04,04,03,38,11.00
2016,04,04,03,39,11.00
2016,04,04,03,40,11.00
2016,04,04,03,41,10.90
2016,04,04,03,42,10.90
2016,04,04,03,43,10.90
2016,04,04,03,44,10.90
2016,04,04,03,45,10.90
2016,04,04,03,46,10.90
2016,04,04,03,47,10.90
2016,04,04,03,48,10.90
2016,04,04,03,49,10.90
2016,04,04,03,50,10.80
2016,04,04,03,51,10.90
2016,04,04,03,52,10.90
2016,04,04,03,53,10.90
2016,04,04,03,54,10.90
2016,04,04,03,55,10.90
2016,04,04,03,56,10.90
2016,04,04,03,57,10.90
2016,04,04,03,58,10.90
2016,04,04,03,59,10.90
2016,04,04,04,00,10.90
2016,04,04,04,01,10.90
2016,04,04,04,02,10.90
2016,04,04,04,03,10.90
2016,04,04,04,04,10.90
2016,04,04,04,05,10.80
2016,04,04,04,06,10.80
2016,04,04,04,07,10.80
2016,04,04,04,08,10.80
2016,04,04,04,09,10.80
2016,04,04,04,10,10.80
2016,04,04,04,11,10.90
2016,04,04,04,12,10.90
2016,04,04,04,13,10.90
2016,04,04,04,14,11.00
2016,04,04,04,15,11.00
2016,04,04,04,16,11.10
2016,04,04,04,17,11.10
2016,04,04,04,18,11.20
2016,04,04,04,19,11.10
2016,04,04,04,20,11.10
2016,04,04,04,21,11.10
2016,04,04,04,22,11.10
2016,04,04,04,23,11.10
2016,04,04,04,24,11.10
2016,04,04,04,25,11.10
2016,04,04,04,26,11.10
2016,04,04,04,27,11.10
2016,04,04,04,28,11.10
2016,04,04,04,29,11.10
2016,04,04,04,30,11.10
2016,04,04,04,31,11.00
2016,04,04,04,32,11.00
2016,04,04,04,33,11.00
2016,04,04,04,34,11.00
2016,04,04,04,35,11.00
2016,04,04,04,36,10.90
2016,04,04,04,37,10.90
2016,04,04,04,38,10.80
2016,04,04,04,39,10.70
2016,04,04,04,40,10.70
2016,04,04,04,41,10.70
2016,04,04,04,42,10.70
2016,04,04,04,43,10.70
2016,04,04,04,44,10.70
2016,04,04,04,45,10.60
2016,04,04,04,46,10.60
2016,04,04,04,47,10.60
2016,04,04,04,48,10.60
2016,04,04,04,49,10.60
2016,04,04,04,50,10.50
2016,04,04,04,51,10.50
2016,04,04,04,52,10.60
2016,04,04,04,53,10.60
2016,04,04,04,54,10.60
2016,04,04,04,55,10.60
2016,04,04,04,56,10.60
2016,04,04,04,57,10.60
2016,04,04,04,58,10.60
2016,04,04,04,59,10.50
2016,04,04,05,00,10.60
2016,04,04,05,01,10.50
2016,04,04,05,02,10.50
2016,04,04,05,03,10.50
2016,04,04,05,04,10.50
2016,04,04,05,05,10.50
2016,04,04,05,06,10.50
2016,04,04,05,07,10.50
2016,04,04,05,08,10.60
2016,04,04,05,09,10.50
2016,04,04,05,10,10.50
2016,04,04,05,11,10.50
2016,04,04,05,12,10.50
2016,04,04,05,13,10.50
2016,04,04,05,14,10.40
2016,04,04,05,15,10.30
2016,04,04,05,16,10.30
2016,04,04,05,17,10.20
2016,04,04,05,18,10.30
2016,04,04,05,19,10.20
2016,04,04,05,20,10.20
2016,04,04,05,21,10.20
2016,04,04,05,22,10.20
2016,04,04,05,23,10.20
2016,04,04,05,24,10.20
2016,04,04,05,25,10.30
2016,04,04,05,26,10.30
2016,04,04,05,27,10.30
2016,04,04,05,28,10.30
2016,04,04,05,29,10.20
2016,04,04,05,30,10.20
2016,04,04,05,31,10.30
2016,04,04,05,32,10.30
2016,04,04,05,33,10.30
2016,04,04,05,34,10.30
2016,04,04,05,35,10.30
2016,04,04,05,36,10.30
2016,04,04,05,37,10.30
2016,04,04,05,38,10.20
2016,04,04,05,39,10.20
2016,04,04,05,40,10.20
2016,04,04,05,41,10.20
2016,04,04,05,42,10.20
2016,04,04,05,43,10.20
2016,04,04,05,44,10.20
2016,04,04,05,45,10.10
2016,04,04,05,46,10.10
2016,04,04,05,47,10.10
2016,04,04,05,48,10.10
2016,04,04,05,49,10.10
2016,04,04,05,50,10.10
2016,04,04,05,51,10.10
2016,04,04,05,52,10.10
2016,04,04,05,53,10.20
2016,04,04,05,54,10.20
2016,04,04,05,55,10.20
2016,04,04,05,56,10.20
2016,04,04,05,57,10.20
2016,04,04,05,58,10.20
2016,04,04,05,59,10.20
2016,04,04,06,00,10.20
2016,04,04,06,01,10.10
2016,04,04,06,02,10.10
2016,04,04,06,03,10.10
2016,04,04,06,04,10.10
2016,04,04,06,05,10.10
2016,04,04,06,06,10.10
2016,04,04,06,07,10.10
2016,04,04,06,08,10.10
2016,04,04,06,09,10.10
2016,04,04,06,10,10.20
2016,04,04,06,11,10.20
2016,04,04,06,12,10.20
2016,04,04,06,13,10.20
2016,04,04,06,14,10.20
2016,04,04,06,15,10.20
2016,04,04,06,16,10.20
2016,04,04,06,17,10.20
2016,04,04,06,18,10.20
2016,04,04,06,19,10.20
2016,04,04,06,20,10.20
2016,04,04,06,21,10.20
2016,04,04,06,22,10.20
2016,04,04,06,23,10.20
2016,04,04,06,24,10.20
2016,04,04,06,25,10.20
2016,04,04,06,26,10.20
2016,04,04,06,27,10.20
2016,04,04,06,28,10.20
2016,04,04,06,29,10.20
2016,04,04,06,30,10.10
2016,04,04,06,31,10.10
2016,04,04,06,32,10.10
2016,04,04,06,33,10.10
2016,04,04,06,34,10.00
2016,04,04,06,35,9.90
2016,04,04,06,36,9.90
2016,04,04,06,37,9.80
2016,04,04,06,38,9.80
2016,04,04,06,39,9.60
2016,04,04,06,40,9.60
2016,04,04,06,41,9.60
2016,04,04,06,42,9.60
2016,04,04,06,43,9.50
2016,04,04,06,44,9.40
2016,04,04,06,45,9.40
2016,04,04,06,46,9.40
2016,04,04,06,47,9.40
2016,04,04,06,48,9.40
2016,04,04,06,49,9.40
2016,04,04,06,50,9.30
2016,04,04,06,51,9.30
2016,04,04,06,52,9.40
2016,04,04,06,53,9.40
2016,04,04,06,54,9.40
2016,04,04,06,55,9.30
2016,04,04,06,56,9.30
2016,04,04,06,57,9.30
2016,04,04,06,58,9.20
2016,04,04,06,59,9.20
2016,04,04,07,00,9.20
2016,04,04,07,01,9.20
2016,04,04,07,02,9.20
2016,04,04,07,03,9.20
2016,04,04,07,04,9.20
2016,04,04,07,05,9.20
2016,04,04,07,06,9.30
2016,04,04,07,07,9.40
2016,04,04,07,08,9.50
2016,04,04,07,09,9.60
2016,04,04,07,10,9.60
2016,04,04,07,11,9.60
2016,04,04,07,12,9.50
2016,04,04,07,13,9.40
2016,04,04,07,14,9.30
2016,04,04,07,15,9.30
2016,04,04,07,16,9.30
2016,04,04,07,17,9.30
2016,04,04,07,18,9.30
2016,04,04,07,19,9.30
2016,04,04,07,20,9.30
2016,04,04,07,21,9.40
2016,04,04,07,22,9.40
2016,04,04,07,23,9.50
2016,04,04,07,24,9.50
2016,04,04,07,25,9.60
2016,04,04,07,26,9.60
2016,04,04,07,27,9.60
2016,04,04,07,28,9.60
2016,04,04,07,29,9.60
2016,04,04,07,30,9.50
2016,04,04,07,31,9.50
2016,04,04,07,32,9.40
2016,04,04,07,33,9.30
2016,04,04,07,34,9.30
2016,04,04,07,35,9.30
2016,04,04,07,36,9.30
2016,04,04,07,37,9.30
2016,04,04,07,38,9.30
2016,04,04,07,39,9.30
2016,04,04,07,40,9.30
2016,04,04,07,41,9.20
2016,04,04,07,42,9.20
2016,04,04,07,43,9.20
2016,04,04,07,44,9.20
2016,04,04,07,45,9.20
2016,04,04,07,46,9.20
2016,04,04,07,47,9.20
2016,04,04,07,48,9.20
2016,04,04,07,49,9.20
2016,04,04,07,50,9.20
2016,04,04,07,51,9.20
2016,04,04,07,52,9.20
2016,04,04,07,53,9.20
2016,04,04,07,54,9.20
2016,04,04,07,55,9.20
2016,04,04,07,56,9.20
2016,04,04,07,57,9.30
2016,04,04,07,58,9.40
2016,04,04,07,59,9.50
2016,04,04,08,00,9.60
2016,04,04,08,01,9.60
2016,04,04,08,02,9.60
2016,04,04,08,03,9.80
2016,04,04,08,04,9.90
2016,04,04,08,05,9.90
2016,04,04,08,06,10.00
2016,04,04,08,07,10.00
2016,04,04,08,08,10.00
2016,04,04,08,09,10.00
2016,04,04,08,10,10.10
2016,04,04,08,11,10.10
2016,04,04,08,12,10.20
2016,04,04,08,13,10.20
2016,04,04,08,14,10.20
2016,04,04,08,15,10.20
2016,04,04,08,16,10.20
2016,04,04,08,17,10.20
2016,04,04,08,18,10.20
2016,04,04,08,19,10.30
2016,04,04,08,20,10.30
2016,04,04,08,21,10.40
2016,04,04,08,22,10.40
2016,04,04,08,23,10.40
2016,04,04,08,24,10.50
2016,04,04,08,25,10.50
2016,04,04,08,26,10.40
2016,04,04,08,27,10.40
2016,04,04,08,28,10.40
2016,04,04,08,29,10.50
2016,04,04,08,30,10.50
2016,04,04,08,31,10.60
2016,04,04,08,32,10.60
2016,04,04,08,33,10.70
2016,04,04,08,34,10.70
2016,04,04,08,35,10.70
2016,04,04,08,36,10.70
2016,04,04,08,37,10.80
2016,04,04,08,38,10.80
2016,04,04,08,39,10.80
2016,04,04,08,40,10.80
2016,04,04,08,41,10.80
2016,04,04,08,42,10.80
2016,04,04,08,43,10.80
2016,04,04,08,44,10.80
2016,04,04,08,45,10.80
2016,04,04,08,46,10.80
2016,04,04,08,47,10.80
2016,04,04,08,48,10.80
2016,04,04,08,49,10.80
2016,04,04,08,50,10.90
2016,04,04,08,51,10.90
2016,04,04,08,52,10.90
2016,04,04,08,53,10.90
2016,04,04,08,54,10.90
2016,04,04,08,55,10.90
2016,04,04,08,56,10.90
2016,04,04,08,57,10.90
2016,04,04,08,58,10.90
2016,04,04,08,59,10.90
2016,04,04,09,00,11.00
2016,04,04,09,01,11.00
2016,04,04,09,02,11.10
2016,04,04,09,03,11.10
2016,04,04,09,04,11.20
2016,04,04,09,05,11.20
2016,04,04,09,06,11.30
2016,04,04,09,07,11.30
2016,04,04,09,08,11.40
2016,04,04,09,09,11.50
2016,04,04,09,10,11.50
2016,04,04,09,11,11.60
2016,04,04,09,12,11.70
2016,04,04,09,13,11.70
2016,04,04,09,14,11.80
2016,04,04,09,15,11.80
2016,04,04,09,16,11.80
2016,04,04,09,17,11.80
2016,04,04,09,18,11.90
2016,04,04,09,19,12.00
2016,04,04,09,20,12.00
2016,04,04,09,21,12.10
2016,04,04,09,22,12.10
2016,04,04,09,23,12.10
2016,04,04,09,24,12.20
2016,04,04,09,25,12.20
2016,04,04,09,26,12.20
2016,04,04,09,27,12.20
2016,04,04,09,28,12.10
2016,04,04,09,29,12.10
2016,04,04,09,30,12.10
2016,04,04,09,31,12.00
2016,04,04,09,32,11.90
2016,04,04,09,33,11.80
2016,04,04,09,34,11.80
2016,04,04,09,35,11.70
2016,04,04,09,36,11.70
2016,04,04,09,37,11.60
2016,04,04,09,38,11.60
2016,04,04,09,39,11.50
2016,04,04,09,40,11.40
2016,04,04,09,41,11.40
2016,04,04,09,42,11.40
2016,04,04,09,43,11.40
2016,04,04,09,44,11.40
2016,04,04,09,45,11.30
2016,04,04,09,46,11.30
2016,04,04,09,47,11.30
2016,04,04,09,48,11.30
2016,04,04,09,49,11.30
2016,04,04,09,50,11.30
2016,04,04,09,51,11.30
2016,04,04,09,52,11.30
2016,04,04,09,53,11.30
2016,04,04,09,54,11.30
2016,04,04,09,55,11.30
2016,04,04,09,56,11.30
2016,04,04,09,57,11.30
2016,04,04,09,58,11.30
2016,04,04,09,59,11.30
2016,04,04,10,00,11.30
2016,04,04,10,01,11.30
2016,04,04,10,02,11.40
2016,04,04,10,03,11.40
2016,04,04,10,04,11.50
2016,04,04,10,05,11.50
2016,04,04,10,06,11.60
2016,04,04,10,07,11.60
2016,04,04,10,08,11.60
2016,04,04,10,09,11.70
2016,04,04,10,10,11.70
2016,04,04,10,11,11.70
2016,04,04,10,12,11.70
2016,04,04,10,13,11.80
2016,04,04,10,14,11.80
2016,04,04,10,15,11.80
2016,04,04,10,16,11.90
2016,04,04,10,17,11.90
2016,04,04,10,18,11.90
2016,04,04,10,19,11.90
2016,04,04,10,20,11.90
2016,04,04,10,21,11.90
2016,04,04,10,22,12.00
2016,04,04,10,23,12.00
2016,04,04,10,24,12.10
2016,04,04,10,25,12.00
2016,04,04,10,26,11.90
2016,04,04,10,27,11.90
2016,04,04,10,28,11.80
2016,04,04,10,29,11.80
2016,04,04,10,30,11.80
2016,04,04,10,31,11.80
2016,04,04,10,32,11.80
2016,04,04,10,33,11.80
2016,04,04,10,34,11.80
2016,04,04,10,35,11.80
2016,04,04,10,36,11.80
2016,04,04,10,37,11.80
2016,04,04,10,38,11.80
2016,04,04,10,39,11.80
2016,04,04,10,40,11.80
2016,04,04,10,41,11.80
2016,04,04,10,42,11.70
2016,04,04,10,43,11.80
2016,04,04,10,44,11.80
2016,04,04,10,45,11.80
2016,04,04,10,46,11.80
2016,04,04,10,47,11.80
2016,04,04,10,48,11.80
2016,04,04,10,49,11.80
2016,04,04,10,50,11.70
2016,04,04,10,51,11.70
2016,04,04,10,52,11.70
2016,04,04,10,53,11.60
2016,04,04,10,54,11.60
2016,04,04,10,55,11.50
2016,04,04,10,56,11.50
2016,04,04,10,57,11.40
2016,04,04,10,58,11.40
2016,04,04,10,59,11.40
2016,04,04,11,00,11.40
2016,04,04,11,01,11.30
2016,04,04,11,02,11.40
2016,04,04,11,03,11.40
2016,04,04,11,04,11.40
2016,04,04,11,05,11.50
2016,04,04,11,06,11.60
2016,04,04,11,07,11.60
2016,04,04,11,08,11.70
2016,04,04,11,09,11.70
2016,04,04,11,10,11.70
2016,04,04,11,11,11.80
2016,04,04,11,12,11.90
2016,04,04,11,13,12.00
2016,04,04,11,14,12.10
2016,04,04,11,15,12.20
2016,04,04,11,16,12.20
2016,04,04,11,17,12.30
2016,04,04,11,18,12.40
2016,04,04,11,19,12.50
2016,04,04,11,20,12.50
2016,04,04,11,21,12.60
2016,04,04,11,22,12.60
2016,04,04,11,23,12.70
2016,04,04,11,24,12.80
2016,04,04,11,25,12.80
2016,04,04,11,26,12.80
2016,04,04,11,27,12.90
2016,04,04,11,28,12.90
2016,04,04,11,29,13.00
2016,04,04,11,30,13.10
2016,04,04,11,31,13.10
2016,04,04,11,32,13.10
2016,04,04,11,33,13.20
2016,04,04,11,34,13.20
2016,04,04,11,35,13.20
2016,04,04,11,36,13.30
2016,04,04,11,37,13.30
2016,04,04,11,38,13.30
2016,04,04,11,39,13.30
2016,04,04,11,40,13.30
2016,04,04,11,41,13.30
2016,04,04,11,42,13.30
2016,04,04,11,43,13.40
2016,04,04,11,44,13.40
2016,04,04,11,45,13.50
2016,04,04,11,46,13.50
2016,04,04,11,47,13.50
2016,04,04,11,48,13.50
2016,04,04,11,49,13.60
2016,04,04,11,50,13.50
2016,04,04,11,51,13.50
2016,04,04,11,52,13.60
2016,04,04,11,53,13.60
2016,04,04,11,54,13.60
2016,04,04,11,55,13.60
2016,04,04,11,56,13.50
2016,04,04,11,57,13.40
2016,04,04,11,58,13.40
2016,04,04,11,59,13.40
2016,04,04,12,00,13.40
2016,04,04,12,01,13.50
2016,04,04,12,02,13.60
2016,04,04,12,03,13.60
2016,04,04,12,04,13.70
2016,04,04,12,05,13.70
2016,04,04,12,06,13.70
2016,04,04,12,07,13.70
2016,04,04,12,08,13.70
2016,04,04,12,09,13.70
2016,04,04,12,10,13.70
2016,04,04,12,11,13.80
2016,04,04,12,12,13.80
2016,04,04,12,13,13.80
2016,04,04,12,14,13.80
2016,04,04,12,15,13.90
2016,04,04,12,16,13.90
2016,04,04,12,17,14.00
2016,04,04,12,18,13.90
2016,04,04,12,19,14.00
2016,04,04,12,20,14.00
2016,04,04,12,21,14.10
2016,04,04,12,22,14.00
2016,04,04,12,23,13.90
2016,04,04,12,24,13.90
2016,04,04,12,25,13.90
2016,04,04,12,26,13.90
2016,04,04,12,27,14.00
2016,04,04,12,28,14.10
2016,04,04,12,29,14.20
2016,04,04,12,30,14.20
2016,04,04,12,31,14.20
2016,04,04,12,32,14.20
2016,04,04,12,33,14.30
2016,04,04,12,34,14.40
2016,04,04,12,35,14.40
2016,04,04,12,36,14.30
2016,04,04,12,37,14.30
2016,04,04,12,38,14.40
2016,04,04,12,39,14.40
2016,04,04,12,40,14.40
2016,04,04,12,41,14.40
2016,04,04,12,42,14.30
2016,04,04,12,43,14.30
2016,04,04,12,44,14.30
2016,04,04,12,45,14.40
2016,04,04,12,46,14.40
2016,04,04,12,47,14.60
2016,04,04,12,48,14.70
2016,04,04,12,49,14.80
2016,04,04,12,50,14.80
2016,04,04,12,51,14.90
2016,04,04,12,52,14.80
2016,04,04,12,53,14.80
2016,04,04,12,54,14.80
2016,04,04,12,55,14.80
2016,04,04,12,56,14.80
2016,04,04,12,57,14.70
2016,04,04,12,58,14.50
2016,04,04,12,59,14.40
2016,04,04,13,00,14.30
2016,04,04,13,01,14.30
2016,04,04,13,02,14.30
2016,04,04,13,03,14.40
2016,04,04,13,04,14.40
2016,04,04,13,05,14.50
2016,04,04,13,06,14.60
2016,04,04,13,07,14.70
2016,04,04,13,08,14.70
2016,04,04,13,09,14.80
2016,04,04,13,10,14.90
2016,04,04,13,11,15.00
2016,04,04,13,12,15.00
2016,04,04,13,13,15.00
2016,04,04,13,14,15.00
2016,04,04,13,15,15.00
2016,04,04,13,16,14.90
2016,04,04,13,17,14.80
2016,04,04,13,18,14.70
2016,04,04,13,19,14.60
2016,04,04,13,20,14.60
2016,04,04,13,21,14.50
2016,04,04,13,22,14.60
2016,04,04,13,23,14.50
2016,04,04,13,24,14.50
2016,04,04,13,25,14.50
2016,04,04,13,26,14.40
2016,04,04,13,27,14.30
2016,04,04,13,28,14.30
2016,04,04,13,29,14.40
2016,04,04,13,30,14.40
2016,04,04,13,31,14.40
2016,04,04,13,32,14.30
2016,04,04,13,33,14.30
2016,04,04,13,34,14.40
2016,04,04,13,35,14.30
2016,04,04,13,36,14.20
2016,04,04,13,37,14.20
2016,04,04,13,38,14.30
2016,04,04,13,39,14.30
2016,04,04,13,40,14.30
2016,04,04,13,41,14.30
2016,04,04,13,42,14.20
2016,04,04,13,43,14.20
2016,04,04,13,44,14.00
2016,04,04,13,45,13.90
2016,04,04,13,46,13.90
2016,04,04,13,47,13.90
2016,04,04,13,48,13.80
2016,04,04,13,49,13.90
2016,04,04,13,50,13.80
2016,04,04,13,51,13.80
2016,04,04,13,52,13.70
2016,04,04,13,53,13.70
2016,04,04,13,54,13.70
2016,04,04,13,55,13.70
2016,04,04,13,56,13.70
2016,04,04,13,57,13.70
2016,04,04,13,58,13.70
2016,04,04,13,59,13.70
2016,04,04,14,00,13.70
2016,04,04,14,01,13.70
2016,04,04,14,02,13.80
2016,04,04,14,03,13.80
2016,04,04,14,04,13.80
2016,04,04,14,05,13.80
2016,04,04,14,06,13.90
2016,04,04,14,07,13.90
2016,04,04,14,08,13.90
2016,04,04,14,09,14.00
2016,04,04,14,10,13.90
2016,04,04,14,11,13.90
2016,04,04,14,12,14.00
2016,04,04,14,13,14.00
2016,04,04,14,14,14.00
2016,04,04,14,15,14.00
2016,04,04,14,16,14.00
2016,04,04,14,17,13.90
2016,04,04,14,18,13.80
2016,04,04,14,19,13.80
2016,04,04,14,20,13.70
2016,04,04,14,21,13.70
2016,04,04,14,22,13.70
2016,04,04,14,23,13.70
2016,04,04,14,24,13.70
2016,04,04,14,25,13.70
2016,04,04,14,26,13.70
2016,04,04,14,27,13.80
2016,04,04,14,28,13.80
2016,04,04,14,29,13.90
2016,04,04,14,30,13.90
2016,04,04,14,31,13.90
2016,04,04,14,32,13.90
2016,04,04,14,33,13.90
2016,04,04,14,34,13.90
2016,04,04,14,35,13.90
2016,04,04,14,36,13.90
2016,04,04,14,37,13.80
2016,04,04,14,38,13.80
2016,04,04,14,39,13.80
2016,04,04,14,40,13.80
2016,04,04,14,41,13.80
2016,04,04,14,42,13.70
2016,04,04,14,43,13.70
2016,04,04,14,44,13.70
2016,04,04,14,45,13.70
2016,04,04,14,46,13.70
2016,04,04,14,47,13.70
2016,04,04,14,48,13.70
2016,04,04,14,49,13.70
2016,04,04,14,50,13.70
2016,04,04,14,51,13.80
2016,04,04,14,52,13.80
2016,04,04,14,53,13.80
2016,04,04,14,54,13.80
2016,04,04,14,55,13.90
2016,04,04,14,56,13.90
2016,04,04,14,57,13.90
2016,04,04,14,58,14.00
2016,04,04,14,59,14.00
2016,04,04,15,00,14.00
2016,04,04,15,01,14.00
2016,04,04,15,02,14.00
2016,04,04,15,03,14.10
2016,04,04,15,04,14.00
2016,04,04,15,05,13.90
2016,04,04,15,06,13.80
2016,04,04,15,07,13.80
2016,04,04,15,08,13.80
2016,04,04,15,09,13.80
2016,04,04,15,10,13.80
2016,04,04,15,11,13.80
2016,04,04,15,12,13.80
2016,04,04,15,13,13.80
2016,04,04,15,14,13.80
2016,04,04,15,15,13.80
2016,04,04,15,16,13.80
2016,04,04,15,17,13.80
2016,04,04,15,18,13.90
2016,04,04,15,19,13.90
2016,04,04,15,20,13.90
2016,04,04,15,21,13.90
2016,04,04,15,22,13.90
2016,04,04,15,23,13.80
2016,04,04,15,24,13.90
2016,04,04,15,25,13.80
2016,04,04,15,26,13.80
2016,04,04,15,27,13.80
2016,04,04,15,28,13.80
2016,04,04,15,29,13.90
2016,04,04,15,30,14.00
2016,04,04,15,31,14.10
2016,04,04,15,32,14.10
2016,04,04,15,33,14.20
2016,04,04,15,34,14.20
2016,04,04,15,35,14.30
2016,04,04,15,36,14.30
2016,04,04,15,37,14.30
2016,04,04,15,38,14.20
2016,04,04,15,39,14.20
2016,04,04,15,40,14.20
2016,04,04,15,41,14.20
2016,04,04,15,42,14.10
2016,04,04,15,43,14.10
2016,04,04,15,44,14.00
2016,04,04,15,45,14.00
2016,04,04,15,46,13.90
2016,04,04,15,47,14.00
2016,04,04,15,48,14.00
2016,04,04,15,49,14.10
2016,04,04,15,50,14.00
2016,04,04,15,51,14.00
2016,04,04,15,52,13.90
2016,04,04,15,53,13.80
2016,04,04,15,54,13.80
2016,04,04,15,55,13.70
2016,04,04,15,56,13.60
2016,04,04,15,57,13.50
2016,04,04,15,58,13.40
2016,04,04,15,59,13.30
2016,04,04,16,00,13.20
2016,04,04,16,01,13.10
2016,04,04,16,02,13.00
2016,04,04,16,03,12.90
2016,04,04,16,04,12.90
2016,04,04,16,05,12.80
2016,04,04,16,06,12.80
2016,04,04,16,07,12.80
2016,04,04,16,08,12.80
2016,04,04,16,09,12.80
2016,04,04,16,10,12.80
2016,04,04,16,11,12.90
2016,04,04,16,12,12.80
2016,04,04,16,13,12.80
2016,04,04,16,14,12.80
2016,04,04,16,15,12.80
2016,04,04,16,16,12.80
2016,04,04,16,17,12.80
2016,04,04,16,18,12.80
2016,04,04,16,19,12.90
2016,04,04,16,20,13.00
2016,04,04,16,21,13.00
2016,04,04,16,22,13.00
2016,04,04,16,23,13.10
2016,04,04,16,24,13.10
2016,04,04,16,25,13.20
2016,04,04,16,26,13.20
2016,04,04,16,27,13.20
2016,04,04,16,28,13.20
2016,04,04,16,29,13.10
2016,04,04,16,30,13.10
2016,04,04,16,31,13.10
2016,04,04,16,32,13.10
2016,04,04,16,33,13.00
2016,04,04,16,34,13.10
2016,04,04,16,35,13.10
2016,04,04,16,36,13.10
2016,04,04,16,37,13.20
2016,04,04,16,38,13.20
2016,04,04,16,39,13.20
2016,04,04,16,40,13.20
2016,04,04,16,41,13.20
2016,04,04,16,42,13.20
2016,04,04,16,43,13.20
2016,04,04,16,44,13.20
2016,04,04,16,45,13.20
2016,04,04,16,46,13.20
2016,04,04,16,47,13.20
2016,04,04,16,48,13.10
2016,04,04,16,49,13.10
2016,04,04,16,50,13.10
2016,04,04,16,51,13.10
2016,04,04,16,52,13.00
2016,04,04,16,53,12.90
2016,04,04,16,54,12.90
2016,04,04,16,55,12.90
2016,04,04,16,56,12.90
2016,04,04,16,57,12.90
2016,04,04,16,58,12.80
2016,04,04,16,59,12.90
2016,04,04,17,00,12.90
2016,04,04,17,01,12.80
2016,04,04,17,02,12.80
2016,04,04,17,03,12.80
2016,04,04,17,04,12.70
2016,04,04,17,05,12.70
2016,04,04,17,06,12.60
2016,04,04,17,07,12.60
2016,04,04,17,08,12.50
2016,04,04,17,09,12.50
2016,04,04,17,10,12.40
2016,04,04,17,11,12.30
2016,04,04,17,12,12.30
2016,04,04,17,13,12.20
2016,04,04,17,14,12.20
2016,04,04,17,15,12.20
2016,04,04,17,16,12.30
2016,04,04,17,17,12.30
2016,04,04,17,18,12.20
2016,04,04,17,19,12.20
2016,04,04,17,20,12.20
2016,04,04,17,21,12.20
2016,04,04,17,22,12.20
2016,04,04,17,23,12.20